Temp
77 73 71 72 72 69 67 64 63 65 64 64 64 65 65 65 65 64 64 64 61 61 61 61 60 60 61 62 61 62 59 59 53 57 60 60 59 59 61 60 62 59 57
78 76 75 74 71 68 66 66 66 64 64 64 64 65 65 64 64 63 63 64 61 61 60 59 60 64 58 60 60 60 60 58 54 53 57 60 59 59 59 58 60 63 58
78 75 73 69 68 67 67 66 66 65 64 64 64 64 64 64 64 64 63 63 63 61 58 58 58 59 58 58 60 58 57 57 56 53 56 57 57 58 57 58 58 56 60
79 75 73 71 69 67 66 67 67 67 65 64 64 64 63 64 65 63 62 61 59 58 59 58 58 58 58 57 57 57 57 57 57 55 56 55 55 55 54 52 51 53 53
80 76 74 73 71 70 70 68 66 67 66 65 64 63 64 65 65 61 63 59 57 57 57 59 59 60 63 61 59 58 56 55 55 53 52 53 52 52 50 51 50 51 52
78 76 77 75 72 72 70 67 66 65 66 65 64 64 64 64 58 57 59 58 57 56 55 57 57 58 60 58 58 58 56 54 53 54 51 49 50 50 51 50 50 47 45
79 78 75 73 72 68 70 66 64 64 64 62 63 64 62 61 54 53 55 57 56 55 54 54 55 60 58 59 56 55 55 56 56 54 51 51 50 51 50 48 48 48 48
77 77 77 75 72 70 66 66 65 64 62 62 63 62 60 62 50 50 53 58 55 54 54 54 54 55 56 57 58 55 56 57 55 56 52 54 56 53 52 51 49 49 51
75 75 75 75 73 73 70 68 66 65 64 63 63 62 60 59 49 49 51 53 53 53 55 55 56 56 54 52 56 56 56 57 60 56 55 55 52 50 50 49 49 47 46
73 74 75 73 71 69 70 69 69 67 65 63 61 62 58 56 46 46 51 53 51 53 54 56 54 55 50 48 55 55 54 55 56 55 55 54 50 51 51 50 49 47 46
74 73 73 72 69 68 69 68 67 66 65 63 60 60 59 56 49 46 48 53 53 53 53 56 56 51 49 47 48 56 54 52 55 55 54 55 55 55 54 52 52 51 48
73 72 71 70 71 71 69 67 66 64 64 62 59 56 56 55 49 46 46 48 52 53 55 55 55 49 46 45 47 50 49 50 54 54 53 54 53 52 53 52 53 53 53
70 68 69 69 69 69 67 66 65 66 65 62 56 54 53 53 52 47 45 46 46 51 55 54 49 47 45 45 44 47 46 52 52 53 54 53 53 54 53 53 54 55 53
67 66 66 67 66 66 69 67 66 66 63 60 56 54 53 52 52 51 50 48 47 51 53 54 51 52 51 52 53 49 52 54 55 54 55 55 57 55 52 53 52 53 51
68 67 67 68 66 66 66 65 66 65 61 60 57 55 52 51 52 50 51 52 54 55 53 54 55 54 54 56 56 58 57 56 55 56 53 54 55 53 53 54 52 51 50
66 67 67 67 68 68 66 65 44 44 43 42 43 52 54 51 45 45 45 46 46 46 51 52 55 57 58 60 59 59 59 57 56 56 55 55 53 53 52 52 53 51 49
65 65 68 65 68 66 66 65 63 47 42 42 44 44 47 48 44 44 43 42 44 46 52 54 55 58 59 60 59 58 57 58 57 56 55 53 53 53 51 51 52 51 50
67 57 67 67 68 68 68 67 66 62 57 52 42 45 43 43 42 41 41 44 51 48 53 55 57 60 60 59 58 58 58 57 56 55 54 53 53 52 51 49 49 47 47
53 62 66 67 68 65 67 67 67 60 55 52 46 44 41 39 40 40 41 56 55 55 57 58 61 61 59 59 59 59 58 55 54 54 53 52 51 49 48 47 46 42 42
65 57 55 66 68 67 68 68 59 53 52 51 49 48 47 47 49 52 53 54 56 58 61 61 61 60 61 61 60 59 57 55 55 53 51 49 48 47 44 43 42 41 43
67 66 57 65 68 64 59 58 55 52 52 50 49 46 40 49 55 55 55 57 59 62 60 60 61 62 62 61 60 59 56 55 53 51 50 48 46 43 43 43 43 43 43
64 65 66 66 58 54 57 58 54 53 52 49 46 41 36 47 57 58 58 60 62 62 62 61 62 62 61 60 58 57 55 52 50 50 48 46 43 42 41 41 43 43 42
64 64 66 66 58 51 54 55 52 50 48 46 46 46 48 51 54 59 61 61 60 61 62 61 61 61 60 58 56 54 50 49 49 49 46 43 42 42 41 41 42 42 43
66 66 66 66 56 57 52 51 48 44 47 47 47 48 49 50 54 59 60 61 62 62 61 61 60 60 58 57 55 51 46 43 48 48 45 43 42 42 43 44 44 45 45
67 66 56 55 57 54 52 51 49 49 49 49 49 49 52 56 60 60 62 61 61 61 61 61 59 60 55 52 50 45 34 33 40 33 46 46 46 47 47 47 47 48 47
67 65 58 58 57 55 54 53 51 51 53 56 57 57 58 59 60 62 61 61 61 60 61 61 60 59 53 48 44 34 33 33 38 33 37 48 48 48 48 48 49 49 49
MSLP
1012.76 1013.43 1013.82 1014.28 1014.64 1015.20 1015.68 1016.12 1016.29 1016.44 1016.66 1016.71 1016.86 1017.21 1017.47 1017.73 1018.15 1018.65 1018.91 1019.21 1019.74 1019.70 1019.70 1019.59 1019.85 1020.00 1020.10 1019.67 1019.63 1019.79 1019.73 1019.60 1019.84 1019.52 1019.24 1018.75 1018.31 1018.05 1017.84 1017.91 1017.95 1017.94 1018.13
1012.37 1013.07 1013.42 1014.06 1014.59 1015.16 1015.59 1015.91 1016.15 1016.23 1016.40 1016.66 1016.75 1016.90 1017.13 1017.39 1017.80 1018.19 1018.74 1018.79 1019.05 1019.40 1019.33 1019.46 1019.56 1019.63 1019.88 1019.87 1019.66 1019.78 1019.46 1019.46 1019.73 1019.72 1019.02 1018.61 1018.10 1017.66 1017.44 1017.63 1017.63 1017.69 1017.91
1011.93 1012.71 1013.31 1013.97 1014.44 1014.78 1015.22 1015.59 1015.84 1016.06 1016.08 1016.32 1016.56 1016.70 1016.94 1017.21 1017.59 1017.71 1018.00 1018.53 1018.55 1018.81 1019.18 1019.34 1019.39 1019.62 1019.62 1019.49 1019.45 1019.44 1019.45 1019.43 1019.34 1019.33 1019.04 1018.36 1017.86 1017.90 1017.88 1018.00 1018.01 1017.76 1017.66
1011.52 1012.28 1012.90 1013.48 1013.93 1014.34 1014.76 1015.05 1015.35 1015.64 1015.91 1016.00 1016.11 1016.31 1016.52 1016.80 1017.08 1017.14 1017.49 1018.03 1018.33 1018.59 1018.85 1018.91 1019.13 1019.23 1019.20 1019.33 1019.57 1019.30 1019.34 1019.29 1019.35 1019.15 1018.86 1018.41 1018.28 1018.34 1018.26 1018.38 1018.10 1018.07 1017.87
1011.56 1011.91 1012.52 1012.99 1013.32 1013.75 1014.19 1014.50 1014.80 1015.11 1015.47 1015.56 1015.69 1015.81 1016.11 1016.33 1016.38 1016.64 1017.07 1017.55 1018.06 1018.30 1018.41 1018.60 1018.80 1019.00 1018.91 1019.05 1019.02 1018.79 1019.03 1019.17 1019.29 1019.13 1019.05 1018.79 1018.70 1018.71 1018.71 1018.62 1018.54 1018.45 1017.98
1011.81 1012.07 1012.24 1012.67 1012.88 1013.15 1013.57 1014.04 1014.44 1014.78 1015.05 1015.33 1015.36 1015.44 1015.50 1015.64 1015.85 1016.20 1016.53 1017.07 1017.53 1017.87 1018.17 1018.53 1018.64 1018.91 1018.89 1018.81 1018.84 1018.81 1019.06 1019.03 1019.03 1018.90 1018.84 1018.91 1018.87 1018.86 1018.84 1018.75 1018.58 1018.37 1017.92
1011.65 1011.71 1012.30 1012.66 1012.80 1013.07 1013.31 1013.80 1014.18 1014.44 1014.69 1015.03 1015.02 1014.97 1014.97 1015.20 1015.53 1015.73 1016.13 1016.62 1017.16 1017.48 1017.99 1018.33 1018.58 1018.59 1018.75 1018.87 1018.91 1018.63 1018.25 1018.47 1018.55 1018.51 1018.59 1018.58 1018.56 1018.48 1018.63 1018.61 1018.43 1018.31 1017.92
1012.03 1012.08 1012.13 1012.42 1012.71 1012.92 1013.23 1013.40 1013.60 1013.93 1014.23 1014.42 1014.49 1014.63 1014.86 1014.94 1015.23 1015.42 1015.95 1016.41 1016.85 1017.25 1017.74 1018.16 1018.53 1018.42 1018.42 1018.45 1018.35 1018.29 1018.11 1017.95 1017.76 1017.97 1018.02 1018.14 1017.96 1018.20 1018.34 1018.40 1018.19 1017.92 1017.64
1012.49 1012.47 1012.41 1012.46 1012.54 1012.54 1012.91 1013.11 1013.16 1013.38 1013.66 1013.86 1014.04 1014.36 1014.57 1014.57 1014.81 1015.18 1015.83 1016.40 1016.65 1017.31 1017.64 1017.96 1018.24 1018.17 1018.25 1018.18 1017.67 1017.53 1017.51 1017.15 1016.56 1016.77 1017.25 1017.38 1017.46 1017.81 1018.15 1018.27 1018.09 1017.87 1017.53
1012.68 1012.58 1012.43 1012.50 1012.65 1012.72 1012.61 1012.74 1012.59 1012.81 1013.05 1013.39 1013.67 1014.04 1014.27 1014.44 1014.73 1015.18 1015.75 1016.22 1016.72 1017.16 1017.46 1017.60 1017.65 1017.62 1017.56 1017.39 1017.35 1017.31 1017.28 1017.02 1016.91 1016.92 1017.19 1017.12 1017.13 1017.31 1017.76 1018.02 1017.88 1017.87 1017.37
1012.63 1012.53 1012.47 1012.31 1012.41 1012.43 1012.52 1012.68 1012.66 1012.59 1012.83 1013.18 1013.33 1013.70 1013.99 1014.22 1014.69 1015.12 1015.48 1015.93 1016.37 1016.76 1016.99 1016.89 1016.98 1017.13 1016.96 1016.88 1017.11 1017.17 1017.00 1017.00 1016.75 1016.71 1016.59 1016.50 1016.42 1016.57 1017.06 1017.06 1017.01 1017.37 1017.02
1012.51 1012.52 1012.49 1012.35 1012.24 1012.21 1012.23 1012.28 1012.32 1012.44 1012.57 1012.85 1013.22 1013.58 1013.94 1014.18 1014.44 1015.09 1015.44 1015.79 1016.04 1016.31 1016.31 1016.31 1016.53 1016.48 1016.38 1016.67 1016.67 1016.47 1016.59 1016.67 1016.80 1016.50 1016.33 1016.15 1016.11 1016.15 1016.28 1016.39 1016.56 1016.31 1016.09
1012.59 1012.49 1012.22 1012.33 1012.22 1011.98 1011.86 1011.80 1011.74 1011.98 1012.15 1012.51 1013.17 1013.50 1013.64 1014.02 1014.31 1014.75 1015.25 1015.63 1015.74 1016.21 1016.13 1016.13 1016.09 1016.01 1016.02 1016.05 1016.02 1016.13 1016.27 1016.42 1016.41 1016.19 1015.89 1015.66 1015.74 1015.58 1015.68 1015.71 1015.44 1015.33 1015.34
1012.46 1012.40 1012.25 1012.11 1011.94 1011.71 1011.32 1011.13 1011.08 1011.50 1011.85 1012.30 1012.65 1013.09 1013.27 1013.68 1014.08 1014.56 1015.12 1015.58 1015.92 1016.18 1016.24 1016.07 1015.83 1015.75 1015.59 1015.52 1015.50 1015.37 1015.70 1015.70 1015.63 1015.37 1015.32 1015.08 1014.94 1015.08 1015.26 1015.37 1015.34 1015.13 1015.08
1011.94 1011.81 1011.76 1011.67 1011.48 1011.22 1010.97 1010.97 1010.86 1011.01 1011.68 1011.91 1012.19 1012.60 1012.97 1013.26 1013.66 1014.08 1014.54 1015.03 1015.49 1015.43 1015.62 1015.50 1015.19 1015.13 1014.97 1014.70 1014.55 1014.32 1014.46 1014.50 1014.71 1014.66 1015.12 1014.94 1014.97 1014.85 1014.94 1014.92 1014.91 1014.84 1014.78
1011.55 1011.49 1011.38 1011.22 1011.04 1010.81 1010.78 1010.91 1011.28 1011.43 1011.62 1011.79 1011.92 1012.14 1012.67 1012.94 1013.46 1013.96 1014.41 1014.68 1014.85 1015.04 1015.13 1014.86 1014.55 1014.17 1013.85 1013.32 1012.91 1013.25 1013.19 1013.48 1014.08 1014.45 1014.33 1014.48 1014.75 1014.76 1014.85 1014.72 1014.54 1014.39 1014.35
1011.01 1011.00 1010.92 1010.88 1010.59 1010.31 1010.18 1010.29 1010.45 1011.81 1011.88 1011.57 1011.88 1012.08 1012.45 1012.91 1013.39 1013.79 1014.27 1014.57 1014.74 1014.71 1014.57 1014.31 1013.86 1013.37 1012.77 1012.51 1012.58 1012.76 1012.98 1013.21 1013.49 1013.95 1014.25 1014.49 1014.60 1014.65 1014.60 1014.46 1014.45 1014.54 1014.58
1010.78 1010.47 1010.39 1010.27 1010.00 1009.83 1009.54 1009.41 1009.27 1009.76 1011.21 1012.60 1012.20 1012.13 1012.64 1013.13 1013.27 1013.64 1014.04 1014.31 1014.44 1014.28 1013.98 1013.75 1013.31 1012.77 1012.32 1012.43 1012.55 1012.75 1013.01 1013.21 1013.60 1013.95 1014.27 1014.36 1014.46 1014.57 1014.73 1014.99 1015.17 1015.38 1015.36
1010.98 1011.35 1010.12 1009.88 1009.71 1009.44 1009.25 1008.99 1008.99 1009.36 1010.37 1012.05 1011.79 1012.57 1013.25 1013.48 1013.51 1013.61 1013.85 1013.71 1013.75 1013.57 1013.31 1013.10 1012.84 1012.38 1012.37 1012.43 1012.58 1012.75 1013.04 1013.44 1013.70 1013.97 1014.19 1014.49 1014.73 1015.07 1015.35 1015.69 1015.93 1016.10 1015.96
1010.37 1010.07 1009.81 1009.48 1009.09 1008.92 1008.68 1008.42 1009.41 1010.48 1010.71 1012.19 1011.68 1012.14 1013.28 1013.56 1013.77 1013.68 1013.59 1013.51 1013.28 1012.85 1012.47 1012.18 1012.22 1012.30 1012.43 1012.46 1012.60 1012.90 1013.35 1013.55 1013.82 1014.23 1014.67 1015.17 1015.53 1015.94 1016.38 1016.54 1016.57 1016.42 1016.16
1009.35 1009.54 1009.46 1009.06 1008.86 1008.97 1009.76 1009.82 1009.16 1009.22 1010.92 1011.87 1011.60 1012.05 1012.54 1013.18 1013.14 1013.22 1013.10 1012.88 1012.68 1012.35 1012.31 1012.56 1012.57 1012.29 1012.37 1012.64 1013.08 1013.46 1013.73 1013.82 1014.21 1014.74 1015.14 1015.75 1016.23 1016.66 1016.75 1016.72 1016.63 1016.43 1016.14
1010.01 1009.23 1009.07 1008.69 1008.85 1009.33 1009.68 1009.81 1010.10 1010.73 1011.50 1011.67 1012.09 1012.88 1013.01 1013.29 1012.69 1012.60 1012.35 1012.28 1012.16 1012.25 1012.55 1012.79 1012.73 1012.73 1013.09 1013.49 1013.86 1014.09 1014.18 1014.68 1015.05 1015.36 1015.71 1016.36 1016.80 1017.04 1016.93 1016.76 1016.52 1016.31 1016.16
1008.85 1008.88 1008.60 1008.29 1008.81 1008.47 1009.67 1010.40 1010.83 1011.49 1011.85 1012.13 1012.40 1012.76 1013.31 1013.03 1012.58 1011.97 1011.86 1012.12 1012.32 1012.64 1012.70 1013.09 1013.24 1013.46 1013.84 1014.23 1014.57 1014.97 1015.41 1015.78 1015.83 1015.87 1016.29 1016.81 1017.04 1016.94 1016.91 1016.78 1016.53 1016.28 1016.00
1008.66 1008.44 1008.02 1007.76 1008.26 1008.98 1010.19 1011.24 1011.86 1011.97 1011.96 1012.10 1012.52 1012.77 1012.85 1013.03 1012.81 1012.13 1012.22 1012.50 1012.57 1012.79 1013.05 1013.32 1013.75 1014.16 1014.37 1014.64 1015.07 1015.77 1016.41 1016.68 1016.27 1016.32 1016.73 1016.97 1016.83 1016.70 1016.60 1016.33 1016.10 1015.87 1015.69
1008.21 1007.84 1008.71 1008.73 1008.99 1009.91 1010.84 1011.61 1011.89 1012.08 1012.26 1012.45 1012.78 1013.09 1013.23 1012.85 1012.39 1012.24 1012.29 1012.54 1012.85 1013.05 1013.49 1013.70 1014.17 1014.42 1015.08 1015.55 1016.04 1016.65 1017.23 1017.22 1017.03 1017.23 1016.75 1016.71 1016.47 1016.27 1016.08 1015.91 1015.69 1015.45 1015.34
1008.04 1007.84 1008.33 1008.02 1009.34 1009.86 1010.99 1011.63 1011.87 1012.03 1012.02 1012.16 1012.29 1012.45 1012.25 1012.11 1012.13 1012.19 1012.54 1012.84 1013.00 1013.39 1013.70 1013.90 1014.34 1014.57 1015.53 1016.30 1016.82 1017.31 1017.43 1017.47 1017.32 1017.40 1017.17 1016.36 1016.20 1016.05 1015.76 1015.52 1015.34 1015.14 1014.98
Wind_Speed
6 6 5 8 5 4 5 4 4 4 4 4 7 6 7 6 6 5 5 5 5 6 4 1 4 6 4 5 3 3 2 2 3 3 3 5 6 5 4 3 5 1 3
7 4 3 4 5 5 5 7 8 8 5 5 6 6 7 6 7 7 6 6 7 6 6 5 0 1 6 5 3 8 4 3 2 5 4 7 4 4 2 3 1 3 3
8 7 6 6 6 6 7 7 8 8 8 6 6 7 5 5 9 9 8 7 6 5 5 3 1 6 6 3 6 5 4 4 3 3 7 3 3 5 5 5 2 1 2
9 8 7 7 7 7 6 7 7 9 10 8 8 8 7 8 10 8 7 7 5 6 5 4 4 6 5 2 8 4 4 2 4 5 4 4 3 4 3 3 4 4 4
5 5 4 5 6 7 7 7 7 8 9 10 8 8 8 10 7 7 9 7 7 6 5 0 4 7 9 7 5 3 3 3 3 3 4 4 3 5 4 3 4 4 4
3 1 3 2 4 5 7 5 5 6 8 7 9 10 12 7 9 13 10 9 7 6 4 3 2 7 8 13 5 5 2 3 4 3 2 3 3 3 3 4 5 3 4
4 5 5 2 3 1 2 4 5 6 4 7 10 10 8 7 10 13 13 8 8 6 5 3 3 5 5 6 6 10 11 9 9 4 3 4 2 2 2 4 4 4 5
5 6 4 3 2 2 5 5 5 4 6 8 8 6 6 7 11 15 16 9 7 6 5 4 5 6 7 10 9 7 7 9 9 7 6 6 4 2 1 3 5 5 5
5 6 6 7 7 0 2 2 4 4 5 5 6 7 10 7 14 15 13 7 7 6 5 5 8 6 8 16 9 10 9 8 7 16 10 9 7 3 3 2 4 4 3
6 4 4 4 6 7 3 3 2 4 5 3 4 5 6 5 10 12 9 5 6 5 4 8 12 9 7 10 6 5 6 3 3 3 4 7 8 7 9 6 3 5 4
4 5 5 2 1 6 2 2 4 4 3 4 4 4 5 5 9 15 13 7 6 5 5 6 1 5 10 10 9 6 4 1 5 4 4 5 5 4 4 6 6 5 6
3 4 6 5 3 4 2 5 4 5 3 5 3 3 3 4 9 12 13 9 7 4 7 2 3 9 8 4 7 10 9 4 4 4 4 3 2 2 3 3 8 7 5
6 5 5 5 5 6 5 6 4 3 1 2 3 3 3 4 5 12 13 13 8 3 4 3 5 5 7 7 10 9 4 4 5 5 6 4 3 4 5 5 7 6 7
6 6 6 5 6 8 6 5 4 2 1 3 4 4 4 4 5 5 6 5 5 4 6 6 7 8 9 8 6 8 7 7 6 5 6 2 3 1 1 3 3 4 3
7 7 5 6 8 7 5 4 2 4 2 4 4 4 5 5 5 8 8 6 6 8 5 4 5 6 8 8 8 8 8 8 8 7 6 3 4 1 2 3 2 3 5
6 7 7 6 6 6 6 4 7 5 3 6 7 5 4 7 12 12 10 7 9 9 3 3 6 8 10 9 2 6 5 5 2 5 3 1 2 2 3 3 4 3 3
7 8 7 8 8 7 6 8 10 0 1 4 6 9 11 9 12 12 9 8 7 6 2 4 6 9 6 3 3 3 3 4 2 5 4 3 3 3 4 3 3 5 6
11 10 6 8 9 9 10 9 7 5 5 1 6 6 8 9 9 11 11 8 3 2 3 5 8 6 2 3 4 3 3 3 4 3 2 3 3 3 4 6 6 6 6
11 18 6 7 8 9 9 9 9 6 5 5 5 7 6 6 6 6 6 3 4 5 6 7 7 2 4 4 2 3 3 4 2 1 2 4 5 6 6 6 5 8 7
7 8 7 9 10 11 11 7 7 6 5 7 5 6 4 4 3 5 4 4 5 5 5 3 4 3 2 3 3 3 5 4 4 4 5 7 7 6 5 5 4 4 5
6 7 11 11 10 5 8 12 4 5 4 4 4 6 9 5 6 5 5 6 5 2 6 4 4 3 4 5 6 6 5 4 6 6 6 6 5 4 3 3 3 4 2
11 7 10 12 1 2 6 5 5 4 5 4 5 4 7 3 2 4 6 4 4 4 4 3 4 5 8 7 6 4 6 8 7 6 5 5 4 2 2 3 3 3 3
6 9 12 10 5 6 4 5 5 3 5 5 5 6 4 1 3 3 5 5 4 4 4 4 4 7 7 5 8 8 8 6 5 5 5 4 1 0 1 2 3 4 2
9 11 12 12 8 6 7 5 5 6 7 9 7 6 6 3 6 4 4 3 3 4 4 4 5 6 4 4 8 8 6 5 5 5 4 3 2 3 4 3 3 4 2
11 11 5 6 2 10 9 7 6 7 7 7 7 5 7 7 4 3 3 4 5 4 5 3 6 5 13 12 11 10 6 6 6 4 1 3 3 3 3 3 3 3 4
12 4 2 5 8 9 9 8 6 5 7 8 8 7 6 4 3 4 5 3 3 5 2 4 6 8 14 10 10 8 5 4 3 5 6 3 2 3 4 3 4 4 1
Wind_Direction
175 187 200 187 170 166 183 189 199 205 218 197 170 192 201 192 182 192 215 184 171 224 249 145 202 222 277 316 338 294 302 7 335 330 278 288 291 280 234 216 243 348 170
161 179 209 178 162 188 217 227 214 205 198 198 198 213 209 182 186 194 209 202 200 184 223 238 296 307 275 259 259 282 306 8 10 288 305 287 266 248 226 206 64 325 31
154 158 180 179 183 192 203 207 212 214 209 212 211 217 220 200 208 201 190 217 197 197 147 124 245 268 271 309 285 295 329 317 301 274 286 286 286 27 11 31 43 317 342
158 169 177 179 189 185 195 197 204 211 215 218 215 213 206 221 222 182 190 192 169 169 182 176 239 256 238 253 278 296 282 301 294 302 325 324 26 9 28 1 352 347 329
348 113 158 200 191 197 199 204 197 209 218 219 214 220 229 236 203 188 190 178 168 193 194 255 266 284 284 254 250 270 44 7 321 345 330 327 18 358 14 326 341 325 313
142 36 45 254 232 186 187 183 189 210 224 229 232 230 230 216 208 192 173 174 179 176 162 228 354 315 320 328 112 115 226 238 246 246 289 324 338 335 344 340 307 307 316
352 108 89 342 323 66 157 177 204 219 214 232 243 241 233 214 209 189 170 168 180 165 174 186 277 280 309 278 222 228 234 230 232 249 244 257 281 307 331 306 310 310 307
27 23 51 130 82 151 166 189 202 197 215 236 242 241 237 234 185 173 174 183 167 157 170 175 245 268 285 297 275 230 227 233 221 216 217 250 255 55 296 299 286 284 297
24 18 10 17 357 196 192 255 230 225 202 225 234 246 245 234 189 179 167 162 146 169 185 223 249 248 258 272 267 239 251 265 257 197 207 233 237 201 230 303 296 321 323
349 2 357 48 20 331 322 279 269 214 227 210 222 241 255 220 184 163 155 145 166 187 210 241 235 247 273 236 233 260 268 289 64 146 247 262 239 213 217 224 260 283 297
317 345 326 1 58 285 38 333 317 301 224 232 224 242 245 192 176 175 176 172 182 175 217 246 173 245 234 212 221 242 253 305 300 271 232 239 238 177 213 212 213 236 271
292 315 317 309 299 283 325 284 261 274 273 258 227 221 213 190 177 193 181 197 178 193 241 125 265 268 271 227 206 223 250 267 276 275 270 282 259 202 220 248 247 222 235
300 287 292 299 300 285 262 262 276 230 256 266 215 231 218 189 184 181 187 205 213 222 278 265 260 243 228 235 238 249 235 226 237 255 264 252 270 169 169 221 229 224 243
269 276 274 269 274 279 276 258 215 221 267 232 209 225 200 180 172 175 194 195 209 227 266 251 231 229 222 225 233 223 220 225 235 247 270 254 248 236 328 334 311 266 268
278 254 259 272 269 269 278 309 289 127 213 239 212 198 189 188 189 174 169 165 199 208 213 241 257 224 238 235 234 228 209 211 218 240 258 272 253 318 325 278 291 281 263
282 282 284 287 294 299 295 263 57 39 233 214 224 198 182 171 162 164 175 219 187 168 191 229 252 260 238 245 169 198 212 205 179 198 189 74 26 324 296 278 270 261 283
258 261 262 267 280 278 287 288 272 194 156 77 208 175 156 166 168 175 166 173 171 151 219 253 267 273 268 40 38 41 35 66 66 55 40 8 321 295 273 286 348 7 357
286 263 265 265 266 277 270 275 291 157 141 261 45 110 134 151 164 160 164 168 184 225 244 247 263 270 34 33 37 27 3 37 70 59 333 314 310 340 12 28 17 6 349
351 295 306 298 290 292 292 290 284 181 142 185 142 82 76 81 115 125 163 209 203 226 232 235 264 11 38 26 353 21 39 76 60 323 333 24 26 38 30 26 12 353 328
248 306 287 293 280 281 275 283 64 52 70 259 160 123 131 138 161 168 192 226 255 263 258 62 30 29 355 281 47 27 43 32 29 42 46 52 42 39 18 356 335 314 315
298 311 283 280 282 333 347 342 140 125 232 230 152 152 158 151 173 185 203 219 240 290 53 31 332 340 24 48 38 30 10 7 50 52 43 46 41 19 354 339 317 290 293
285 272 290 293 104 132 208 275 78 120 192 169 127 121 122 261 184 205 213 206 76 66 71 17 339 35 56 39 24 352 25 48 39 25 52 52 49 17 318 305 330 341 331
290 280 278 281 131 99 337 47 66 126 119 117 113 113 110 41 339 307 84 74 69 54 64 53 360 52 54 16 64 52 43 29 4 49 55 71 86 78 314 305 299 290 276
278 274 274 288 156 118 92 98 112 97 107 104 98 81 59 5 265 73 85 94 115 90 73 73 67 57 63 41 56 68 49 22 353 52 72 127 214 213 231 232 268 266 258
263 264 72 56 111 107 116 119 116 113 117 112 109 142 208 227 216 185 93 85 63 82 87 58 67 37 80 67 65 79 66 36 33 343 204 197 255 297 311 308 249 278 315
275 299 203 153 127 116 124 146 144 156 160 165 177 195 201 169 216 97 89 76 106 77 30 92 82 75 98 81 83 96 82 51 25 326 311 241 294 308 295 282 318 317 340